Regional Weather Roundup
Issued by NWS

Home | Current Version | Previous Version | Graphics & Text | Print | Product List | Glossary Off
Versions: 1 2 3 4 5 6 7 8 9 10 11 12 13 14 15 16 17 18 19 20 21 22 23 24 25 26 27 28 29 30 31 32 33 34 35 36 37 38 39 40 41 42 43 44 45 46 47 48 49 50

000
ASUS43 KFSD 282310
RWRSD

WEATHER ROUNDUP FOR SOUTH DAKOTA
NATIONAL WEATHER SERVICE SIOUX FALLS SD
600 PM CDT THU APR 28 2016

NOTE: "FAIR" INDICATES FEW OR NO CLOUDS BELOW 12,000 FEET WITH NO
SIGNIFICANT WEATHER AND/OR OBSTRUCTIONS TO VISIBILITY.


SDZ001>005-009-010-012>017-290000-
NORTHWEST AND NORTH CENTRAL SOUTH DAKOTA

CITY           SKY/WX    TMP DP  RH WIND       PRES   REMARKS
BUFFALO          N/A     39  35  86 NE8       30.04R
FAITH            N/A     37  30  75 NW7       30.08S
MOBRIDGE       CLOUDY    53  35  50 SE9       30.04R
$$

SDZ012>016-024>037-041>051-057-063-072>074-290000-
SOUTHWEST AND SOUTH CENTRAL SOUTH DAKOTA

CITY           SKY/WX    TMP DP  RH WIND       PRES   REMARKS
RAPID CTY ARPT CLOUDY    39  34  82 NE10      30.08R
PIERRE         CLOUDY    47  36  65 NE10      30.06R
CUSTER         CLOUDY    33  28  81 NE9       30.01R HAZE    WCI  25
ELLSWORTH AFB  CLOUDY    39  37  92 N7        30.07
PHILIP         CLOUDY    44  35  70 N14       30.08R
PINE RIDGE     LGT RAIN  41  34  76 NE8       30.05R
WINNER         CLOUDY    45  38  76 N8        30.06R
$$

SDZ004>011-016>023-039-040-290000-
NORTHEAST SOUTH DAKOTA

CITY           SKY/WX    TMP DP  RH WIND       PRES   REMARKS
ABERDEEN       CLOUDY    52  33  48 NE14      30.06S
WATERTOWN      CLOUDY    38  34  85 NE12      30.05R
BROOKINGS      CLOUDY    37  33  85 NE5       30.05R
SISSETON         N/A     45  36  70 S9        30.07R
$$

SDZ017-020-022-023-036>040-048>070-290000-
SOUTHEAST SOUTH DAKOTA

CITY           SKY/WX    TMP DP  RH WIND       PRES   REMARKS
SIOUX FALLS    CLOUDY    41  36  82 N9        30.05R
HURON          CLOUDY    42  37  82 NE10G24   30.07R
CHAMBERLAIN    CLOUDY    46  40  81 NE7       30.06R
MITCHELL       LGT RAIN  42  39  89 N10       30.07R
YANKTON        CLOUDY    45  36  70 N9        30.04R
$$

ABBREVIATIONS USED IN REMARKS
   TC - TEMPERATURE IN CELSIUS
  WCI - WIND CHILL INDEX
   HX - HEAT INDEX
  VSB - VISIBILITY




USA.gov is the U.S. government's official web portal to all federal, state and local government web resources and services.